GFSCGP_250_spd_024.txt.gz
Wind_Speed
117 122 114 106 109 115 112 103 96 95 101 100 93 86 78 83 82 78 74 74 76 77 77 78 80 81 83 85 85 84 81 85 83 78 72 67 64 58 56 56 53 47 54 54
116 108 107 110 116 113 112 107 101 103 101 99 99 90 89 88 86 85 84 79 79 79 82 81 83 83 80 81 81 78 74 71 70 68 65 61 58 54 52 50 48 43 49 53
114 107 109 110 110 107 105 100 98 99 100 99 104 97 97 89 88 84 82 81 82 82 83 83 82 80 77 72 70 70 65 65 65 63 60 56 53 51 50 46 42 45 48 51
107 104 105 107 108 107 103 102 100 99 99 92 95 82 79 74 76 77 77 77 77 78 76 75 74 70 66 65 63 63 64 63 55 52 49 48 48 47 45 43 41 43 47 48
105 108 108 107 103 105 95 100 99 98 96 93 86 80 64 68 67 69 66 64 64 64 61 62 61 59 61 61 58 59 56 51 46 43 41 42 41 39 39 38 39 43 43 45
115 114 111 104 104 100 92 94 96 98 97 90 83 81 68 66 69 63 58 55 54 53 52 54 55 54 57 56 52 43 39 38 35 32 32 34 35 35 36 37 38 37 38 40
118 120 112 108 103 98 94 94 93 94 94 75 72 73 59 62 62 56 52 47 46 46 46 44 46 46 49 45 37 31 28 29 24 23 26 29 31 33 33 35 34 32 32 35
110 113 111 109 107 101 96 95 88 79 76 65 69 66 50 50 44 45 44 41 38 35 34 35 35 41 33 28 27 23 23 18 18 21 24 28 31 30 33 32 29 25 28 28
95 102 106 107 107 103 99 92 85 82 76 68 63 55 48 45 37 32 31 33 30 26 28 28 32 23 21 22 19 16 14 15 18 19 27 27 28 32 30 26 22 21 23 21
87 93 100 106 108 103 97 95 94 85 80 68 60 53 45 46 37 28 26 26 25 21 22 24 18 13 13 11 9 10 15 18 22 26 28 27 29 31 23 20 15 17 19 16
80 82 92 95 97 98 98 94 94 90 81 71 62 52 51 45 36 29 26 26 19 14 18 14 12 8 9 11 14 18 19 22 25 28 26 27 29 24 19 14 13 15 15 13
69 80 90 85 85 93 97 96 91 86 79 73 64 56 58 44 35 30 26 25 21 17 12 13 14 12 7 10 16 17 22 24 24 24 25 27 25 18 16 15 11 13 14 10
57 70 88 83 83 86 87 92 89 80 78 71 67 62 56 49 40 32 29 25 23 14 15 16 18 14 10 12 17 20 25 25 22 22 27 24 19 16 15 15 11 12 13 9
48 59 75 85 79 80 78 82 82 80 73 68 57 68 60 52 43 29 24 23 20 14 15 17 19 11 12 13 21 22 22 20 21 23 25 19 16 14 14 15 14 11 11 7
42 51 58 69 70 66 69 70 72 74 73 68 62 63 58 57 47 39 31 24 18 15 15 17 18 16 16 17 18 21 19 21 22 24 21 16 15 14 14 15 13 10 11 3
32 40 46 53 57 67 68 66 61 66 65 64 64 62 61 50 46 41 31 28 18 19 17 18 16 13 17 17 19 19 19 22 22 23 17 13 16 13 10 12 9 10 8 8
29 33 40 44 54 62 65 64 58 63 63 62 62 68 56 43 31 33 31 32 27 23 19 18 16 14 19 19 18 17 19 21 22 18 13 15 13 10 9 9 6 2 3 12
24 30 37 46 53 57 63 67 62 68 63 61 64 62 53 41 37 35 33 28 26 24 20 21 17 15 17 17 16 16 18 20 20 14 12 14 9 7 6 6 6 4 7 12
25 28 33 38 42 51 61 67 72 68 61 57 63 58 53 48 43 37 28 31 30 28 26 19 18 11 10 11 12 16 17 19 17 12 13 13 5 5 6 7 6 9 10 14
25 28 35 38 43 48 54 62 64 62 62 63 57 58 58 53 48 41 38 38 37 29 23 19 15 10 13 12 11 15 17 16 14 11 14 13 6 7 8 7 8 9 9 12
30 30 35 37 40 49 53 59 70 68 67 57 54 55 55 54 51 50 44 42 34 34 28 21 20 10 13 12 11 13 16 14 13 10 13 10 5 11 9 5 6 9 8 12
34 37 41 44 44 47 55 61 66 66 59 55 52 53 53 54 54 43 48 44 36 35 30 24 19 10 14 12 10 12 14 12 11 9 10 6 8 13 9 7 8 10 9 9
39 45 47 52 54 51 57 64 65 61 60 50 52 54 49 48 41 41 57 45 42 35 33 27 19 11 11 11 11 11 12 9 9 6 7 6 5 11 9 8 9 7 6 10
46 49 52 54 57 57 57 66 63 62 61 42 52 69 72 68 60 56 57 48 43 34 32 27 18 11 11 12 11 10 9 5 7 3 4 7 4 7 11 8 6 7 8 11
47 53 51 50 52 59 70 73 72 54 61 71 63 77 77 69 63 59 49 53 44 36 31 27 21 16 11 8 11 9 6 3 4 6 4 2 4 7 9 9 10 10 12 15
44 52 58 57 54 63 75 85 85 75 69 67 64 76 78 74 66 58 59 51 44 37 33 29 23 20 14 10 11 11 8 3 4 5 9 5 4 6 7 7 7 10 13 15

GFSCGP_250_spd_027.txt.gz
Wind_Speed
129 132 129 124 119 116 111 102 97 96 94 93 89 83 79 83 87 80 76 73 71 74 74 73 73 73 73 74 77 77 79 80 80 83 83 78 77 76 73 70 67 56 48 36
128 122 126 125 130 126 120 115 110 105 108 105 97 84 80 84 81 79 78 82 84 81 76 77 80 80 80 80 78 81 81 84 83 83 80 75 74 70 69 66 56 47 44 50
126 122 125 127 128 122 125 125 119 115 113 108 107 96 93 88 87 87 86 84 85 81 79 82 82 84 82 79 78 79 79 81 78 76 74 71 69 61 55 53 45 40 42 46
118 120 121 123 119 120 119 122 124 121 122 116 115 103 103 95 96 92 90 85 78 80 85 82 81 79 76 74 72 71 72 70 68 70 70 64 55 53 47 42 39 32 39 47
120 116 116 120 118 118 113 114 115 116 110 108 102 96 87 98 88 83 80 80 80 78 73 71 70 69 66 63 62 63 61 64 67 66 56 51 48 43 39 36 33 36 40 42
114 126 122 115 117 115 111 109 108 110 107 98 92 88 76 81 79 77 73 69 66 63 61 60 61 59 58 57 58 59 61 62 54 48 47 41 37 34 31 33 33 36 39 43
111 116 123 124 116 112 109 108 104 103 99 89 87 82 73 80 75 73 62 63 64 62 60 58 58 56 52 53 55 57 55 46 42 38 34 33 29 28 30 31 33 37 40 37
98 109 114 121 121 114 108 104 101 98 91 81 83 72 67 69 68 65 63 62 61 60 56 52 50 48 46 47 47 48 44 37 31 28 27 25 26 29 30 33 36 38 33 27
92 98 103 110 116 118 113 107 100 94 88 79 71 61 57 58 59 57 57 52 49 46 45 42 37 39 40 42 43 36 30 27 25 21 22 25 28 31 32 35 36 29 23 23
89 88 91 100 105 109 113 110 105 97 87 75 64 55 47 49 46 46 42 42 38 35 35 31 32 34 36 34 29 20 16 16 18 21 24 27 30 32 33 35 27 23 17 22
68 80 85 92 92 99 107 109 107 101 91 76 64 53 44 48 40 35 34 31 29 28 25 26 28 33 25 18 16 16 15 19 21 24 27 28 29 32 33 27 23 16 16 21
55 69 85 86 86 92 96 100 101 97 88 79 66 54 50 55 41 35 36 33 31 27 20 23 31 22 21 21 12 13 19 19 25 27 29 28 30 30 25 22 20 13 15 20
50 61 72 76 80 80 82 87 88 88 88 79 69 58 66 59 47 39 36 33 32 27 23 23 26 20 22 18 15 16 17 22 26 26 25 27 29 24 21 19 14 14 16 19
44 51 63 71 73 75 69 73 75 79 79 75 64 62 67 62 50 41 36 34 32 31 26 22 18 18 19 16 17 14 17 23 25 24 26 27 24 22 18 15 12 14 16 19
37 44 54 63 63 67 68 65 63 64 71 74 70 69 70 63 54 45 39 34 31 35 25 22 18 17 17 20 17 17 21 24 24 24 25 25 23 19 16 11 13 15 16 17
34 39 45 50 54 60 64 63 58 60 61 65 70 72 68 64 57 47 41 37 30 27 25 23 20 20 22 19 18 18 22 24 23 25 25 21 19 17 13 10 13 14 16 14
26 33 38 40 42 52 56 57 57 58 59 61 67 70 67 61 56 52 45 37 31 27 24 21 20 23 20 17 18 22 23 21 23 24 24 18 14 12 9 8 9 12 13 10
23 29 34 34 38 49 58 59 59 58 62 63 66 69 63 56 52 50 46 41 34 31 27 17 21 24 22 17 17 17 17 19 22 24 17 12 14 9 6 7 9 10 7 13
21 27 31 35 42 54 62 64 65 61 63 65 64 64 62 57 51 45 43 39 32 35 28 20 23 20 16 11 10 13 14 18 21 23 13 12 14 6 5 5 7 6 7 12
21 25 26 29 33 40 53 62 64 65 65 63 63 63 59 55 48 47 37 31 31 34 24 21 24 19 11 6 10 12 12 18 21 20 11 11 11 7 5 5 4 6 2 12
23 27 29 33 37 43 50 62 69 66 64 64 59 58 54 56 56 49 43 39 35 38 26 26 25 19 9 7 10 10 11 17 19 15 9 11 6 8 9 7 6 7 5 12
27 29 32 36 38 43 52 63 63 64 63 59 55 53 58 63 60 57 47 53 44 34 34 30 29 18 10 5 10 8 11 17 17 9 7 8 4 7 8 4 5 10 9 9
32 31 32 33 34 37 45 57 66 66 58 55 53 57 65 62 66 48 47 44 36 29 34 34 28 22 13 4 7 6 11 15 13 7 7 8 1 5 4 3 6 6 6 9
35 35 35 37 40 43 52 61 63 58 57 52 53 61 69 65 63 60 58 55 49 32 40 33 26 22 12 0 5 3 9 11 10 8 5 7 4 6 6 4 6 7 6 10
36 38 39 43 47 53 61 66 64 63 53 50 54 62 71 67 66 67 59 52 47 38 41 34 31 22 15 4 2 2 6 7 8 8 4 5 6 2 4 3 2 2 4 8
36 39 40 46 57 62 65 67 67 62 45 40 49 60 63 66 66 66 53 51 44 44 38 34 32 22 16 9 5 4 4 5 6 6 5 6 7 4 3 4 4 4 8 9

GFSCGP_250_spd_030.txt.gz
Wind_Speed
126 133 124 127 132 129 123 118 113 110 108 106 102 99 93 93 94 91 88 85 80 76 76 76 74 70 67 69 72 74 78 79 79 81 85 83 83 84 81 77 75 73 67 53
128 124 124 129 130 129 128 127 117 112 110 105 100 95 90 87 82 82 81 82 79 77 73 70 68 71 71 71 77 78 79 78 81 82 81 78 78 76 74 74 71 63 52 50
129 124 125 127 128 129 132 128 125 121 116 109 105 94 89 84 78 77 73 71 71 69 69 71 74 74 75 79 81 74 76 78 75 76 74 70 71 71 71 69 61 54 48 43
129 128 123 124 127 128 127 129 129 129 127 122 120 99 91 86 81 79 77 79 74 72 75 80 80 78 78 82 78 77 74 69 68 64 65 68 69 66 62 56 53 48 39 36
115 120 125 128 121 122 122 124 123 121 121 119 108 100 97 99 90 87 90 87 83 88 86 85 82 79 75 76 71 70 65 62 59 60 64 63 61 55 51 50 45 39 28 37
102 105 115 121 124 124 116 116 118 119 116 106 102 99 89 98 98 97 95 91 90 89 88 83 77 75 75 68 64 59 60 61 59 61 60 54 49 49 45 39 33 32 33 37
92 101 105 106 113 118 118 114 109 107 104 94 98 94 80 83 88 90 93 91 87 78 73 71 70 68 65 60 61 60 58 57 58 58 51 49 46 41 35 30 30 32 35 39
72 91 99 96 101 109 112 114 110 104 93 91 93 81 75 72 77 78 82 80 75 69 66 65 64 64 59 56 55 54 51 55 52 48 45 40 35 31 29 30 32 33 36 37
63 72 85 94 97 101 106 107 109 107 97 90 76 73 68 71 70 67 64 62 63 61 59 58 54 52 49 46 45 48 49 45 42 35 32 29 28 30 31 31 32 35 36 29
55 62 73 83 90 94 97 102 105 102 98 87 74 68 59 63 60 55 50 49 48 46 44 43 42 43 39 40 41 39 39 34 28 28 27 27 30 31 30 30 34 35 28 26
47 54 64 72 81 86 89 91 94 93 92 88 78 64 57 59 56 51 45 41 38 34 33 34 37 33 33 32 33 33 25 22 24 24 24 29 31 31 31 34 33 27 25 19
42 51 57 61 65 78 78 81 84 84 83 84 80 67 61 58 55 46 39 34 30 28 29 33 27 23 28 28 28 28 24 24 21 21 26 28 30 31 32 32 27 25 22 14
36 44 50 52 58 67 71 74 75 79 79 79 78 67 64 60 57 46 37 30 27 29 29 28 23 28 25 27 28 20 22 18 20 22 25 28 30 32 30 25 24 22 15 12
31 38 45 48 52 59 65 68 67 68 68 72 73 67 66 62 60 46 38 31 31 30 29 28 27 26 26 26 25 20 18 16 20 22 26 28 30 29 25 22 22 16 9 12
27 34 42 43 46 52 58 63 61 60 64 63 69 68 70 67 61 49 41 35 33 31 30 27 23 26 25 23 19 21 18 18 21 24 24 26 28 26 21 22 16 11 9 12
23 31 36 36 39 47 56 58 55 56 59 60 64 68 73 72 63 54 48 38 36 34 32 28 23 24 23 22 20 21 18 19 23 23 24 25 26 21 18 12 7 7 7 11
18 24 29 31 35 42 51 60 58 58 59 59 64 76 76 71 65 57 50 44 39 34 33 27 27 21 18 21 20 19 17 20 22 21 22 24 21 17 11 6 4 4 7 10
13 16 22 28 33 43 54 61 62 58 60 63 73 81 77 70 66 58 54 48 42 34 32 23 21 18 19 21 19 17 17 17 18 20 23 22 16 11 7 3 1 3 5 5
10 14 21 27 31 38 48 62 66 62 59 64 76 82 75 68 63 59 55 47 39 38 29 20 18 13 14 18 15 16 11 16 16 19 22 19 14 9 4 2 0 2 3 3
12 18 23 28 31 37 46 60 69 71 66 69 77 80 75 68 61 58 54 49 42 39 31 26 18 15 13 15 13 9 11 14 14 17 19 15 12 5 3 1 1 3 1 6
14 18 23 28 33 37 48 64 73 71 66 69 73 73 67 66 61 56 53 50 42 34 25 21 20 19 16 15 8 8 9 11 13 15 14 13 8 2 1 2 2 3 1 12
19 23 25 27 30 41 50 61 70 74 70 68 62 62 68 66 58 51 47 47 41 35 31 22 21 19 19 12 9 6 8 9 11 12 11 10 4 2 2 1 3 6 3 14
24 26 26 30 33 41 54 63 69 69 69 66 62 65 67 66 55 52 57 56 38 31 34 27 28 23 22 17 6 5 6 7 9 10 8 9 3 3 2 2 6 7 7 12
23 26 29 33 37 46 55 62 67 70 67 57 59 66 69 64 63 67 62 49 38 42 33 33 31 25 25 18 7 7 3 5 8 10 6 6 4 2 2 3 6 6 6 10
23 27 31 36 41 49 57 64 69 64 60 58 62 67 69 71 71 67 61 43 40 44 38 34 33 27 27 17 12 8 2 3 8 8 6 3 3 5 5 3 1 4 6 13
20 27 33 41 47 54 61 64 60 59 63 66 67 69 72 76 75 68 54 50 41 38 42 35 29 29 29 20 11 5 3 3 6 8 7 2 2 6 6 4 4 5 8 14

GFSCGP_250_spd_033.txt.gz
Wind_Speed
120 120 121 134 131 130 125 123 119 116 114 111 109 100 99 97 94 93 92 93 90 85 81 78 76 75 74 72 70 68 65 64 62 66 72 77 80 79 81 74 71 66 65 65
122 121 122 125 129 127 128 122 121 124 120 116 110 104 99 94 91 88 87 86 84 79 77 73 71 72 73 71 67 62 58 58 64 71 78 80 80 78 73 68 65 65 63 57
116 115 122 126 127 127 126 125 121 120 127 121 111 104 98 95 92 90 86 86 81 74 73 72 70 66 66 60 56 55 59 66 71 77 81 83 75 70 68 66 65 61 53 54
115 119 124 123 122 126 129 126 122 119 127 121 115 98 99 96 95 93 89 87 82 78 74 71 67 60 59 59 60 64 69 76 78 78 75 70 66 67 67 63 58 54 53 50
103 108 116 122 127 126 123 125 124 122 119 117 114 103 103 105 103 100 93 90 85 80 75 70 67 66 62 63 65 70 72 76 79 72 66 63 64 65 62 55 53 52 42 36
84 95 101 108 116 119 122 125 122 122 120 112 105 100 95 100 97 99 100 95 91 84 77 76 73 70 72 71 71 72 72 73 67 61 60 62 62 59 51 51 46 39 32 33
71 77 85 96 102 105 110 114 118 121 116 103 103 100 88 94 99 96 97 96 94 90 87 86 83 83 77 76 78 79 74 64 59 58 58 57 55 47 45 37 34 33 34 39
60 67 71 79 86 96 97 98 106 107 109 102 103 86 84 85 88 89 90 91 88 82 76 76 75 77 74 70 70 69 63 59 56 55 51 50 41 39 33 29 32 36 37 36
49 57 59 63 69 77 88 88 91 96 96 98 95 91 84 76 78 84 82 77 72 65 64 66 66 65 64 62 56 53 52 49 47 47 43 37 34 29 27 30 35 35 35 38
43 46 51 54 59 65 72 78 85 81 82 85 85 86 83 77 77 75 66 65 61 58 56 57 55 55 54 52 49 45 43 41 41 38 34 30 27 26 29 32 33 33 35 31
36 40 45 46 50 56 60 63 75 71 71 77 82 82 82 76 70 57 52 52 50 50 46 44 43 43 42 39 36 36 36 35 33 27 27 25 26 27 29 29 31 33 31 25
29 34 37 40 42 49 51 56 59 65 68 72 79 79 76 70 68 56 49 45 43 42 39 37 35 31 32 31 31 31 28 30 23 20 23 24 26 28 28 30 30 29 24 23
24 29 30 34 38 41 42 49 54 61 67 68 70 72 70 69 65 56 46 43 35 33 34 32 30 28 25 27 27 26 25 22 19 19 19 23 26 27 28 29 28 24 23 21
21 23 26 29 32 36 41 46 52 60 66 67 66 66 63 67 63 57 49 42 33 30 30 30 28 25 26 25 25 23 21 21 21 19 21 25 25 27 29 29 23 22 23 15
14 18 21 24 28 33 38 46 51 58 67 64 63 63 62 67 65 57 49 40 35 32 32 30 29 29 25 24 23 20 18 20 20 18 22 25 27 29 28 23 20 20 14 11
9 14 17 18 24 32 40 48 55 60 64 64 57 63 66 72 67 59 52 41 37 36 34 33 30 27 24 20 19 17 18 19 19 19 25 25 27 28 22 20 18 11 9 5
5 11 15 19 27 32 39 46 57 58 61 59 56 66 72 75 67 60 53 44 39 38 36 33 27 27 23 18 14 16 18 15 17 21 21 24 25 22 21 15 10 7 5 2
4 8 11 15 23 29 35 44 55 58 58 56 60 65 74 73 67 61 53 46 42 39 36 29 27 22 18 14 12 16 16 16 18 18 21 22 21 17 16 9 6 5 2 1
9 12 16 20 25 29 38 49 60 63 61 59 71 69 78 71 68 63 55 49 44 41 31 27 23 22 16 12 11 14 16 17 15 18 20 19 15 15 12 4 3 3 1 6
10 12 16 22 26 31 37 51 63 65 64 64 80 74 82 67 67 63 60 54 46 40 34 29 27 22 15 14 13 11 15 11 13 17 16 14 12 13 5 5 5 5 4 13
13 14 15 20 25 33 42 54 60 67 67 73 82 80 82 72 69 63 61 54 48 42 36 30 28 22 14 14 14 4 8 8 13 14 14 11 9 4 6 6 6 5 3 15
14 17 20 22 27 35 45 58 70 72 73 79 84 81 73 76 67 63 59 53 48 40 37 34 30 22 17 15 10 8 11 10 11 11 12 8 3 5 7 6 5 6 6 19
15 17 21 24 30 40 50 60 64 73 75 81 82 77 73 71 67 63 58 54 47 43 42 34 28 23 19 18 11 11 11 9 9 7 10 5 1 6 5 4 7 9 8 23
12 16 21 25 31 39 49 59 67 74 76 80 80 68 74 68 66 63 60 57 48 40 41 35 27 21 16 19 13 11 8 8 5 5 8 3 3 6 5 6 10 10 9 21
15 18 22 26 33 43 54 66 72 75 77 76 68 73 73 67 64 64 63 60 51 39 39 35 29 25 21 21 15 12 9 9 3 4 4 1 4 7 7 7 8 12 14 16
14 19 25 29 38 47 56 64 71 71 71 65 70 73 71 68 66 65 65 62 57 47 41 38 31 26 24 24 16 14 12 10 3 3 3 3 4 7 7 6 6 12 13 20

GFSCGP_250_spd_036.txt.gz
Wind_Speed
101 111 118 119 119 117 122 119 118 117 117 120 112 105 104 110 109 106 100 97 94 88 90 92 94 91 88 85 85 84 81 74 69 63 61 58 57 61 66 75 78 75 70 67
99 101 113 121 123 121 121 121 116 121 120 123 117 108 105 104 100 100 98 98 95 93 94 92 88 84 79 78 76 71 70 63 57 54 52 54 59 66 72 75 74 70 66 68
101 106 109 112 115 123 125 122 120 120 124 123 118 109 109 106 103 101 97 94 92 88 88 84 82 77 72 69 67 64 61 54 51 52 53 58 63 68 72 73 68 65 65 66
92 103 111 115 114 115 116 121 126 123 123 115 119 111 111 104 102 99 95 93 92 91 87 84 82 77 71 67 66 62 56 53 54 56 59 63 68 71 75 70 64 63 64 61
88 94 103 107 111 117 118 118 117 121 124 118 113 113 105 105 101 99 99 97 96 94 88 83 81 78 72 67 67 61 57 57 57 62 63 69 71 75 78 65 62 63 59 53
81 89 93 99 104 108 110 115 118 116 114 117 111 112 97 105 106 107 107 106 105 99 92 85 82 79 78 79 77 70 64 62 66 70 76 75 78 69 67 63 60 56 50 40
70 75 81 84 91 98 99 103 107 110 110 104 100 108 97 99 102 105 100 101 103 101 97 89 88 81 82 79 77 73 71 71 72 74 72 72 65 63 61 56 54 48 38 35
64 67 71 70 72 79 87 93 92 95 97 99 102 105 87 92 100 99 98 97 92 94 92 89 90 86 81 81 77 74 74 74 69 68 65 60 56 55 53 48 45 39 36 36
53 55 57 57 62 67 72 73 83 89 88 83 91 96 95 93 92 95 93 90 86 82 75 82 81 78 75 74 74 72 68 65 61 57 55 53 50 50 43 39 36 36 37 37
40 43 43 49 51 57 61 64 66 73 77 70 81 81 85 91 95 93 86 81 76 73 70 71 71 68 66 65 64 59 57 56 52 49 49 46 43 37 34 33 33 35 34 33
32 34 36 41 40 45 51 55 59 63 63 64 76 74 88 89 89 83 82 76 67 63 59 60 60 60 57 56 53 51 49 44 44 44 41 36 30 29 29 32 34 33 32 34
26 28 29 34 33 38 42 48 52 55 58 63 72 79 79 83 84 78 76 68 62 53 48 48 48 49 47 43 44 41 39 40 37 35 27 25 23 26 30 32 33 30 32 34
22 23 24 29 29 35 38 43 47 49 55 60 68 70 74 80 78 71 62 63 61 51 45 44 42 39 35 35 35 35 35 31 28 23 22 20 21 24 29 30 29 31 33 28
17 18 21 26 27 31 36 40 43 46 50 59 68 76 79 74 70 63 59 59 54 47 40 36 32 31 32 32 34 31 25 22 22 20 23 26 22 27 28 28 30 31 26 23
14 16 19 22 23 28 34 39 42 49 53 58 70 72 73 63 65 61 58 55 51 44 37 29 29 30 31 33 30 23 18 16 17 20 24 25 25 29 27 28 30 23 21 21
10 12 14 17 22 28 32 36 41 49 54 60 63 65 58 58 60 61 56 53 48 41 34 32 32 29 31 25 23 19 16 14 16 19 21 22 27 27 27 29 22 19 16 13
8 9 10 13 18 22 25 30 41 47 56 64 67 69 63 63 63 60 56 53 47 40 35 33 32 30 26 24 21 19 16 14 13 13 17 22 24 24 28 23 20 14 11 11
3 5 8 12 15 19 27 35 41 50 62 66 65 58 62 64 64 59 57 52 46 39 35 33 33 30 28 24 22 16 15 13 12 14 17 21 23 26 25 20 15 10 10 9
1 4 7 12 17 24 30 37 44 54 62 66 62 65 66 67 63 63 59 54 47 40 35 36 34 31 28 24 19 15 14 13 13 16 17 19 23 25 20 17 12 9 9 13
2 5 8 12 20 26 30 39 49 58 63 62 63 65 68 68 68 65 60 55 47 40 39 38 34 31 27 22 17 15 12 9 14 14 14 19 23 20 17 12 10 9 9 20
4 8 12 16 22 27 32 40 51 61 64 66 66 68 66 70 67 65 63 56 49 42 41 39 34 31 25 20 18 15 4 9 11 10 16 19 18 16 11 12 11 10 12 23
2 8 14 17 23 30 36 46 57 61 66 68 69 73 78 69 71 68 65 57 50 46 43 38 35 30 24 21 20 11 6 8 8 11 16 16 14 10 10 11 9 8 10 23
2 6 11 18 24 29 39 50 55 61 68 68 71 74 71 70 70 69 63 56 56 50 44 37 34 30 25 20 18 9 9 9 8 12 13 13 9 8 10 10 9 9 10 22
4 8 12 18 24 32 40 50 59 67 71 68 72 71 71 72 71 68 64 57 58 51 44 38 35 31 23 21 17 9 10 8 8 9 13 9 7 10 10 10 11 9 13 25
4 9 15 20 26 33 42 53 62 68 70 70 67 70 70 72 71 67 63 59 56 46 40 37 34 30 25 21 18 8 11 7 7 8 12 6 8 12 13 12 15 13 14 23
3 7 13 21 31 42 55 66 68 66 65 67 69 76 69 72 72 68 63 60 52 42 37 37 35 32 25 18 20 12 12 8 8 8 9 4 7 11 12 12 16 18 17 24

GFSCGP_250_spd_042.txt.gz
Wind_Speed
79 88 100 106 107 107 111 112 107 107 116 127 131 121 105 104 100 99 101 106 105 103 101 99 96 96 97 90 86 82 79 82 80 78 80 79 78 77 77 76 77 70 65 59
81 82 86 94 104 109 112 113 110 110 113 122 123 124 112 114 111 111 110 108 104 102 101 94 95 95 95 88 81 77 82 84 85 81 78 78 78 77 77 76 70 62 61 63
77 82 87 91 92 98 108 113 114 117 120 123 118 119 115 112 112 114 114 115 111 104 100 99 96 94 93 85 77 75 83 86 82 81 80 82 81 79 75 65 64 62 64 64
71 77 82 87 92 100 101 104 108 116 119 121 122 123 117 108 107 110 114 113 115 111 109 104 102 96 91 87 91 88 88 81 81 81 77 77 75 71 66 58 59 63 65 65
69 74 81 82 86 96 101 104 108 109 112 116 120 124 111 113 110 111 109 111 115 116 113 110 105 97 92 89 81 81 77 72 71 71 68 68 66 63 55 61 61 66 67 69
70 75 81 81 86 93 96 100 106 109 113 112 106 116 110 114 111 113 113 114 113 113 118 115 109 106 96 90 85 78 69 68 69 69 69 71 69 66 61 66 70 69 69 73
74 78 81 82 86 90 94 94 99 104 107 105 107 118 105 99 108 112 114 116 114 110 110 107 106 108 107 103 100 92 83 78 73 72 72 74 72 72 64 67 67 69 75 74
73 74 78 80 83 80 83 92 94 96 100 97 103 107 96 95 96 100 103 108 111 111 107 104 100 100 101 99 98 94 93 87 86 78 74 74 69 70 67 69 73 75 72 67
66 65 67 68 70 71 75 81 85 86 83 89 92 91 89 88 89 94 99 103 103 102 103 104 104 100 94 89 92 97 94 87 83 77 72 67 70 69 73 74 71 67 64 62
56 51 53 55 55 60 61 71 73 74 70 77 80 79 78 80 82 84 90 94 99 97 86 89 99 97 88 88 85 85 81 81 79 77 74 71 72 72 64 62 62 61 59 57
44 42 42 44 46 47 52 56 61 65 64 62 63 62 71 72 70 72 76 84 93 87 84 82 86 89 90 86 79 77 73 74 72 70 70 71 68 62 56 56 56 56 52 47
39 35 35 35 38 40 42 46 51 50 56 50 49 54 57 58 57 64 75 71 79 77 78 78 72 73 83 85 76 70 65 65 60 59 58 58 56 54 53 53 51 47 44 38
32 29 29 29 33 34 36 36 38 41 44 42 40 42 49 55 60 65 64 76 66 48 65 73 68 65 63 67 71 67 60 55 52 50 49 49 49 49 49 48 44 42 38 33
24 24 26 25 27 24 25 20 28 33 36 37 36 38 41 49 55 49 58 56 53 60 79 70 62 56 51 51 52 54 53 51 46 44 45 45 47 48 47 42 39 37 34 30
18 18 19 19 19 17 17 16 24 26 31 32 36 43 43 49 48 51 57 45 58 62 64 53 47 44 45 38 38 37 36 37 37 39 41 42 43 40 37 35 34 33 29 32
18 15 13 12 13 10 14 18 24 27 29 29 35 44 50 52 51 36 37 49 59 59 50 48 44 40 35 34 32 33 32 33 35 37 36 35 33 32 31 31 27 25 28 32
17 14 12 10 9 5 9 18 27 27 31 32 40 49 49 44 29 41 50 52 51 51 49 47 44 35 37 34 34 31 33 34 34 32 29 28 25 26 29 24 23 25 29 28
17 14 9 7 7 6 8 18 22 26 28 29 28 26 25 23 31 47 50 49 47 45 47 47 42 36 35 33 32 34 35 31 29 27 24 22 24 24 19 22 24 28 26 19
19 18 12 7 5 7 11 18 21 24 26 25 22 25 32 37 44 47 50 48 47 49 49 49 42 38 36 36 37 36 30 26 26 22 22 21 16 14 18 22 24 24 17 7
19 18 14 9 5 6 11 19 23 27 25 28 36 43 47 47 49 54 54 55 61 55 52 48 39 35 32 37 35 31 26 26 23 21 21 15 14 17 20 22 22 18 10 8
20 18 13 10 7 4 12 19 26 28 28 30 43 48 47 46 48 52 57 61 60 63 50 30 32 32 37 34 30 27 27 24 20 17 15 12 14 17 20 19 16 10 7 8
17 17 14 10 7 4 8 16 24 25 32 42 47 51 54 55 59 66 67 66 67 60 41 38 32 34 33 31 27 28 22 17 14 13 11 10 13 17 16 11 7 4 4 4
15 15 12 8 6 3 8 15 22 28 38 44 57 64 65 68 73 72 72 74 67 53 40 41 40 40 32 28 28 23 18 15 12 13 9 10 13 13 7 3 7 7 4 5
12 11 9 4 3 4 11 19 27 38 44 54 66 73 75 75 76 79 75 68 54 49 44 40 37 34 28 28 25 20 17 14 14 12 10 10 11 5 4 10 12 6 3 5
10 8 6 3 2 7 17 29 42 50 55 58 67 78 80 81 80 71 64 58 52 41 31 22 26 27 28 27 23 21 12 12 12 11 9 10 8 3 12 15 13 13 14 17
6 7 4 5 9 15 30 45 53 59 67 71 77 85 89 81 76 69 63 55 51 39 24 13 27 24 25 25 24 16 14 13 11 8 8 10 7 4 11 18 22 21 21 22

GFSCGP_250_spd_045.txt.gz
Wind_Speed
75 83 94 99 100 102 105 106 106 106 113 117 119 112 103 103 107 103 103 109 110 113 114 110 103 100 100 96 93 91 84 81 77 71 72 73 75 78 78 74 77 76 75 78
74 77 82 86 95 104 106 106 107 108 113 116 116 115 108 107 105 108 109 110 105 102 101 100 98 99 97 94 90 89 88 81 78 81 80 80 83 75 70 75 74 78 77 76
72 77 81 84 87 93 100 105 109 110 114 116 116 117 110 111 114 115 113 114 111 105 101 101 98 95 93 91 89 85 84 79 78 77 78 81 76 72 75 74 75 76 75 63
62 67 72 78 86 93 92 98 101 108 114 116 121 113 112 108 109 114 116 119 114 111 110 106 105 102 98 94 88 83 80 79 76 83 84 79 73 73 76 75 75 69 64 63
65 68 72 75 80 88 90 97 100 102 103 112 114 120 108 112 111 111 111 113 118 121 118 114 110 106 103 95 89 86 86 85 78 77 80 77 78 77 77 73 69 70 69 70
65 70 72 75 79 86 89 96 98 101 104 107 99 111 103 112 115 113 114 114 115 116 122 119 118 116 112 107 100 95 93 87 83 81 77 78 74 71 70 67 65 68 70 74
66 73 79 76 79 85 89 91 94 97 100 101 103 113 95 100 107 114 119 114 117 115 115 112 109 109 112 106 101 96 93 89 88 87 81 76 75 72 70 68 72 73 76 75
68 74 81 79 81 83 85 83 85 90 97 98 99 104 95 96 102 106 107 113 118 118 117 114 108 104 102 100 94 91 91 89 89 84 78 76 74 76 76 76 82 76 79 72
67 71 82 81 82 78 81 76 79 86 82 88 93 94 90 94 94 100 101 102 102 105 112 112 107 104 101 100 96 87 87 86 89 91 91 90 89 86 83 81 81 81 75 73
56 51 69 61 64 65 63 67 68 73 75 78 81 80 80 84 85 88 92 91 95 100 98 92 96 101 99 97 95 89 84 83 82 81 82 82 79 77 75 76 74 72 72 73
47 47 55 50 51 53 49 55 58 61 63 65 66 64 63 70 72 74 80 84 88 86 86 79 78 74 83 90 92 88 85 79 75 76 75 73 72 67 66 66 66 67 67 65
45 41 41 42 38 36 38 45 47 48 53 54 52 55 53 53 59 60 67 74 72 74 69 72 68 61 71 70 75 79 80 73 74 73 68 66 64 62 63 62 62 59 57 56
36 32 30 32 27 28 28 31 35 37 40 43 41 45 40 49 47 48 55 56 60 61 57 47 53 38 56 55 57 58 61 64 65 66 65 58 54 53 53 53 52 51 49 46
29 25 24 23 22 23 24 28 35 36 37 37 34 34 38 37 39 43 43 41 45 40 41 52 52 21 21 27 42 38 42 48 53 55 58 56 51 48 46 46 47 46 44 48
22 19 17 13 13 17 19 27 33 32 33 33 30 29 30 32 35 39 36 36 38 42 46 16 18 23 22 18 24 29 30 34 41 47 52 51 50 45 42 43 46 46 44 42
18 15 13 7 5 10 17 23 23 26 28 28 30 27 25 29 33 38 34 36 44 57 42 45 46 39 33 29 36 37 29 26 37 41 42 43 43 43 46 45 41 38 36 34
14 12 13 10 7 8 12 19 14 17 21 25 24 26 21 25 24 23 34 42 58 63 58 59 55 48 17 23 32 31 32 30 33 34 35 39 42 41 36 33 32 31 30 27
12 11 9 8 10 11 9 12 12 13 13 13 15 17 18 20 31 39 46 54 56 65 65 69 61 46 23 28 38 45 43 35 32 34 37 34 31 27 26 28 27 26 24 25
13 12 9 8 8 10 10 10 12 9 11 11 13 15 27 37 40 46 55 58 55 70 70 64 49 45 51 34 33 43 41 36 31 34 29 25 23 23 24 21 20 21 22 23
14 11 9 6 5 7 10 8 8 10 20 19 18 26 36 42 44 47 55 63 75 83 78 70 66 43 15 39 39 38 34 37 36 25 24 20 20 19 17 17 18 20 21 20
13 14 13 7 6 2 8 7 10 15 25 36 39 44 47 46 47 60 67 70 75 78 88 72 57 44 28 38 41 37 38 37 29 25 18 19 18 16 14 16 19 21 19 16
14 15 14 10 6 1 3 6 12 21 36 47 49 52 51 59 64 69 75 76 78 77 76 69 56 42 30 40 38 40 38 35 24 18 17 17 12 11 14 16 18 15 12 11
13 12 13 9 5 5 8 11 23 36 46 51 58 59 64 70 72 83 85 84 76 74 68 60 42 37 33 38 36 38 33 25 20 19 16 10 7 10 14 13 9 10 10 8
12 10 8 6 6 8 12 17 34 45 50 57 68 74 73 77 83 84 83 79 74 64 53 44 45 42 26 25 21 20 23 23 23 17 11 4 7 11 8 10 15 13 11 9
10 6 7 5 7 11 18 26 39 42 46 62 77 81 85 92 86 83 79 72 68 57 43 37 33 25 27 24 16 18 21 25 16 14 6 6 5 7 12 20 15 15 13 12
6 5 5 6 11 15 24 32 38 45 56 69 87 94 101 89 83 82 82 74 62 58 50 43 48 35 29 23 18 20 21 20 13 9 4 4 7 7 14 20 19 15 15 16

GFSCGP_250_spd_048.txt.gz
Wind_Speed
79 88 94 94 96 99 102 104 108 112 114 118 122 121 117 113 116 118 122 120 113 98 94 104 113 112 110 102 98 94 92 95 98 95 89 89 81 77 77 73 67 68 72 76
65 72 82 92 98 98 99 104 108 110 114 115 119 113 115 121 126 124 121 118 116 109 103 104 111 110 101 101 104 106 103 103 98 95 89 77 80 80 82 80 77 75 73 69
65 70 73 78 84 92 101 104 105 108 110 114 119 113 111 111 113 121 127 125 120 119 115 106 104 105 103 106 106 100 98 94 91 87 86 84 82 81 80 77 71 69 66 72
58 64 73 80 84 86 90 100 108 110 111 113 118 112 113 111 114 113 116 119 117 118 118 116 113 106 96 98 103 102 98 92 83 75 73 75 77 76 73 71 67 66 68 71
57 62 68 73 81 89 94 97 100 101 109 115 112 117 105 113 113 116 118 121 121 120 117 116 113 112 109 106 101 97 92 83 74 71 71 73 70 68 69 69 68 67 69 70
61 65 68 73 77 82 90 94 98 102 104 107 104 117 103 111 113 118 121 121 122 120 117 115 113 113 111 107 101 99 96 86 81 78 79 77 71 70 70 73 73 74 72 75
61 67 71 75 78 83 90 92 94 96 101 103 108 106 94 101 110 116 118 118 117 119 117 115 113 111 113 111 105 99 97 91 90 83 80 81 82 78 78 76 79 80 78 79
64 68 77 80 83 86 93 95 95 94 96 96 101 96 98 97 104 105 108 113 117 116 116 114 112 110 106 108 109 105 99 95 93 93 92 94 93 89 82 82 83 81 77 74
63 66 74 84 86 88 87 87 89 85 86 89 95 94 91 91 95 99 103 103 103 104 110 112 113 109 104 102 102 103 96 92 90 92 98 97 93 90 87 86 78 78 77 79
57 54 64 70 74 77 78 79 83 78 74 79 82 85 84 83 86 95 95 96 99 99 98 96 99 103 103 101 98 99 95 86 84 84 85 84 81 77 76 75 77 79 80 80
49 49 53 57 59 59 62 58 65 67 67 66 68 70 73 73 78 82 83 84 87 88 95 94 87 86 86 87 90 93 95 88 82 82 81 81 76 74 73 72 72 71 70 69
44 45 49 48 46 45 46 51 51 54 57 57 57 54 56 59 65 61 66 73 78 79 80 81 79 73 73 71 72 77 82 79 77 77 78 75 73 71 70 69 66 62 61 62
43 40 39 42 38 37 37 39 41 40 42 48 42 42 43 42 46 49 53 64 66 67 71 67 64 61 63 67 67 60 57 54 51 53 59 63 66 67 65 64 62 59 55 55
33 31 29 32 36 35 30 31 31 31 33 36 30 32 34 33 38 38 43 46 53 57 53 54 53 48 44 45 46 38 33 35 37 35 38 44 52 56 56 55 55 53 51 48
27 27 25 26 30 30 29 26 25 26 21 17 22 24 24 27 27 30 34 34 45 48 46 44 37 33 36 32 33 28 17 22 19 20 27 34 39 43 45 46 42 42 46 47
24 22 22 25 23 24 21 21 20 17 16 16 12 17 19 20 25 28 29 33 33 35 40 39 37 37 38 41 28 28 16 20 13 15 17 23 28 34 36 39 42 43 45 46
17 18 22 23 15 14 14 15 12 11 12 9 9 10 17 23 28 32 38 40 44 47 48 53 56 57 52 35 28 23 23 16 19 11 16 16 23 26 28 34 39 40 44 45
17 17 16 15 15 11 11 7 3 3 4 9 19 21 22 28 36 48 49 51 57 70 70 65 60 55 50 45 42 47 26 25 23 20 18 18 20 26 29 32 36 39 39 35
15 14 10 12 14 8 8 2 5 9 11 23 37 36 29 45 54 68 73 82 89 88 81 75 66 58 50 36 32 34 25 28 27 24 30 19 20 23 24 26 27 27 28 26
16 12 9 10 11 8 4 4 11 17 27 45 49 46 45 69 81 92 103 97 91 82 82 80 74 63 53 35 35 33 33 34 34 32 24 16 20 19 19 20 23 23 23 23
13 10 7 6 7 4 0 8 18 27 41 54 63 62 75 89 103 100 95 92 86 83 83 87 76 63 46 36 42 35 33 39 35 30 17 16 17 17 18 20 20 22 23 22
11 11 7 4 3 2 6 15 25 37 50 59 72 74 89 96 102 96 90 92 91 88 98 85 75 53 53 52 50 39 40 32 27 24 19 19 17 18 19 19 22 20 21 21
11 9 8 2 2 5 10 21 33 43 52 60 77 88 99 102 96 97 94 89 84 86 89 82 65 60 52 53 44 40 38 34 35 26 18 17 17 17 17 19 18 18 18 18
9 7 6 2 3 6 17 31 39 46 53 76 82 90 105 104 100 99 94 86 73 73 80 72 72 58 45 41 40 36 40 40 31 22 19 15 15 15 15 14 14 16 17 18
8 4 4 4 6 10 22 35 39 50 61 78 91 96 109 107 102 94 85 80 69 68 70 66 57 39 33 29 29 26 22 19 21 17 14 15 14 11 9 13 15 18 18 16
4 3 2 5 12 17 26 34 41 58 71 87 93 96 103 110 105 94 89 85 71 68 65 54 48 36 24 23 16 14 13 15 16 16 18 14 10 7 9 14 14 17 18 13